Location: Boiro
(42.6475°N, 8.8834°W)
Time: 03:04:36
(UTC+01:00)

Vanguard 1 Rocket - Pass Details

Date: 12 December 2021
Orbit: 651 x 4224 km, 34.3° (Epoch: 21 January)

Event Time Altitude Azimuth Distance (km) Brightness Sun altitude
Rises 02:26:28 0° 237° (WSW) 3,559 - -67.1°
Reaches altitude 10° 02:28:39 10° 231° (SW) 2,854 - -66.9°
Maximum altitude 02:35:14 45° 159° (SSE) 1,965 - -66.1°
Exits shadow 02:44:29 17° 97° (E) 4,296 10.9 -65.0°
Drops below altitude 10° 02:47:27 10° 93° (E) 5,194 11.4 -64.6°
Sets 02:52:57 0° 89° (E) 6,810 12.1 -63.8°
